Regional Weather Roundup
Issued by NWS New Orleans/Baton Rouge, LA

Home | Current Version | Previous Version | Text Only | Print | Product List | Glossary On
Versions: 1 2 3 4 5 6 7 8 9 10 11 12 13 14 15 16 17 18 19 20 21 22 23 24 25 26 27 28 29 30 31 32 33 34 35 36 37 38 39 40 41 42 43 44 45 46 47 48 49 50
000
ASUS44 KLIX 280110
RWRLIX
NEW ORLEANS REGIONAL WEATHER ROUNDUP
NATIONAL WEATHER SERVICE NEW ORLEANS LA
800 PM CDT WED AUG 27 2014

NOTE: "FAIR" INDICATES FEW OR NO CLOUDS BELOW 12,000 FEET WITH NO
      SIGNIFICANT WEATHER AND/OR OBSTRUCTIONS TO VISIBILITY.
      SKY/WX - SKY CONDITION AND SIGNIFICANT WEATHER.
      TMP - AIR TEMPERATURE.     DP    - DEWPOINT TEMPERATURE.
      RH  - RELATIVE HUMIDITY.   PRES  - PRESSURE.
      HI  - HEAT INDEX.          WCI   - WIND CHILL INDEX.

*  THESE STATIONS ARE NOT NWS OR FAA STATIONS AND ARE NOT UNDER
   NWS QUALITY CONTROL.

LAZ038-040-048-061>063-065>067-069-280200-
SOUTHEAST LOUISIANA

CITY           SKY/WX    TMP DP  RH WIND       PRES   REMARKS
N.O. AUDUBON     N/A     84  77  80 MISG        N/A
N.O. INTL ARPT MOCLDY    84  75  74 SE6       29.98S
N.O. LAKEFRONT MOCLDY    84  75  74 SE8       29.98S
N.O. DOWNTOWN* MOCLDY    84  73  70 SE5       29.99S
SLIDELL        CLOUDY    82  76  81 CALM      29.98S
BATON ROUGE    MOCLDY    83  74  74 SE3       29.97S
BOOTHVILLE     MOCLDY    83  76  79 SE6       29.97F
BELLE CHASSE   MOCLDY    80  74  81 E3        29.98R
BOGALUSA*      CLOUDY    82  74  77 CALM      30.01R
GALLIANO*      NOT AVBL
NEW ROADS*       N/A     82  74  77 S5        29.98R
GONZALES*        N/A     81  77  88 CALM      29.97S
HAMMOND*       MOCLDY    82  73  74 CALM      30.00S
HOUMA*         MOCLDY    80  73  80 CALM      29.97S
PORT FOURCHON* MOCLDY    84  77  79 E8        29.98S

$$

MSZ070-080>082-280200-
SOUTHERN MISSISSIPPI

CITY           SKY/WX    TMP DP  RH WIND       PRES   REMARKS
MCCOMB         PTCLDY    82  71  69 S5        29.99S
GULFPORT       MOCLDY    84  71  65 S5        29.98R
BILOXI         PTCLDY    85  71  63 S6        29.99R
PASCAGOULA     MOCLDY    81  73  76 CALM      29.99R
STENNIS ARPT*  PTCLDY   N/A N/A N/A SE5       29.98S

$$

COASTAL OBSERVATIONS
LAKE AND NEARSHORE STATIONS

STATION/POSITION TIME  TEMP    WIND        PRES    WAVE
                       AIR SEA DIR/SP/G            HT/PER
                 (UTC) (F)     (DEG/KT/KT) (MB)    (FT/S)
PASCAGOULA       0100   86     170/  8/ 10 1015.0
WAVELAND YACHT   0100   85     160/ 11/ 12 1014.7
GRAND ISLE       0100   83 84  130/  7/ 10 1015.4
SOUTHWEST PASS   0100   84 89  110/ 12/ 14 1015.0
NEW CANAL        0100   84 85  140/  2/  6 1015.6
SHELL BEACH      0100   83 82  140/  9/ 12 1015.1

OFFSHORE STATIONS

STATION/POSITION TIME  TEMP    WIND        PRES    WAVE
                       AIR SEA DIR/SP/G            HT/PER
                 (UTC) (F)     (DEG/KT/KT) (MB)    (FT/S)
64 S DAUPHIN ISL 0014   85 86  110/ 12/ 12 1015.0

$$



USA.gov is the U.S. government's official web portal to all federal, state and local government web resources and services.